Location: Bluff Heights
(33.7692°N, 118.1592°W)
Time: 01:08:24
(UTC+00:00)

COSMO-SKYMED 1 - Visible Passes

Search period start: 28 February 2021 00:00
Search period end: 10 March 2021 00:00
Orbit: 621 x 623 km, 97.9° (Epoch: 27 February)

Date Brightness Start Highest point End Pass type
(mag) Time Alt. Az. Time Alt. Az. Time Alt. Az.
28 Feb 3.9 02:19:29 10° N 02:23:38 45° WNW 02:27:45 10° SW visible
28 Feb 2.6 13:09:59 10° SSE 13:14:19 84° ENE 13:18:40 10° N visible
01 Mar 4.8 02:37:52 10° NNW 02:41:34 28° WNW 02:45:15 10° SW visible
01 Mar 6.0 11:56:08 10° ENE 11:56:44 10° ENE 11:57:21 10° ENE visible
01 Mar 2.6 13:28:05 10° S 13:32:20 58° W 13:36:38 10° NNW visible
02 Mar 5.5 02:56:32 10° NNW 02:59:27 18° WNW 03:02:20 10° WSW visible
02 Mar 5.5 12:11:49 10° ESE 12:14:34 17° ENE 12:17:18 10° NNE visible
02 Mar 3.2 13:46:27 10° SSW 13:50:24 34° W 13:54:23 10° NNW visible
03 Mar 5.9 03:16:04 10° NW 03:17:16 11° WNW 03:18:29 10° W visible
03 Mar 4.8 12:28:51 10° SE 12:32:26 26° ENE 12:36:02 10° NNE visible
04 Mar 3.9 12:46:17 10° SE 12:50:21 42° ENE 12:54:27 10° N visible
05 Mar 3.5 02:13:25 10° N 02:17:39 53° WNW 02:21:52 10° SSW visible
05 Mar 2.9 13:04:01 10° SSE 13:08:19 71° ENE 13:12:38 10° N visible
06 Mar 4.6 02:31:43 10° N 02:35:35 32° WNW 02:39:27 10° SW visible
06 Mar 2.5 13:22:01 10° S 13:26:19 70° WSW 13:30:39 10° NNW visible
07 Mar 5.4 02:50:16 10° NNW 02:53:29 21° WNW 02:56:42 10° WSW visible
07 Mar 5.7 12:06:19 10° E 12:08:37 14° ENE 12:10:55 10° NE visible
07 Mar 3.0 13:40:18 10° S 13:44:22 41° W 13:48:29 10° NNW visible
08 Mar 5.8 03:09:21 10° NW 03:11:20 13° WNW 03:13:19 10° W visible
08 Mar 5.1 12:23:06 10° ESE 12:26:28 22° ENE 12:29:51 10° NNE visible
09 Mar 4.2 12:40:26 10° SE 12:44:22 35° ENE 12:48:20 10° N visible
